Temperature
8 10 9 10 9 10 10 10 10 10 9 9 10 10 11 10 9 9 9 9 8 8 8 8 8 8 8 8 8 8 8 8 8 8 8 8 8 8 7 7 7 7 7 7
9 9 9 9 8 8 9 9 9 9 8 9 9 9 10 9 9 8 9 8 8 7 7 7 7 8 8 8 8 8 8 8 8 8 7 7 7 7 7 7 7 7 7 7
9 8 8 8 8 8 8 9 9 9 8 8 8 10 10 10 8 8 7 7 7 7 7 7 7 7 7 7 8 7 7 7 7 7 7 7 7 7 7 7 7 6 6 6
8 7 7 7 8 8 8 8 8 8 8 9 8 10 11 10 9 9 8 7 7 7 7 6 7 7 7 7 7 7 7 7 7 7 7 7 7 7 7 6 6 6 6 6
7 7 7 7 7 7 7 7 7 7 7 7 8 8 11 9 9 9 8 7 7 6 6 6 6 6 6 7 7 7 7 7 7 7 6 6 6 6 6 6 6 6 6 5
6 6 6 6 6 6 6 6 6 7 7 7 8 8 11 10 9 9 8 7 6 6 6 5 6 6 6 6 6 6 6 6 6 6 6 6 6 6 6 5 5 5 5 5
6 6 5 5 6 6 6 7 7 7 7 8 7 7 9 9 8 7 7 6 5 5 5 5 5 5 5 5 5 5 6 6 5 5 5 5 5 5 5 5 5 5 5 5
7 7 6 5 6 6 6 7 7 8 8 9 6 7 9 7 6 5 5 5 5 5 5 5 5 5 5 5 5 5 5 5 5 5 5 5 5 5 5 5 5 4 4 4
7 7 5 5 5 6 6 6 6 6 5 6 8 8 8 7 6 5 5 4 4 4 4 4 4 4 4 4 5 5 5 5 4 4 4 4 4 4 4 4 4 4 4 4
6 5 5 4 4 4 5 5 5 6 6 8 9 8 9 8 7 6 6 5 4 4 4 4 4 4 4 4 4 4 4 4 4 4 4 4 4 4 4 4 4 4 4 3
5 5 4 4 4 5 4 4 5 6 6 7 8 9 8 7 7 6 5 4 4 4 4 3 3 4 4 4 4 4 4 4 4 4 4 3 3 3 3 3 3 3 3 3
4 5 4 4 3 3 4 4 5 5 5 5 7 8 6 5 5 4 4 3 3 3 3 3 3 3 3 3 3 3 3 3 3 3 3 3 3 3 3 3 3 3 2 2
3 3 4 5 3 2 2 2 2 3 4 5 6 8 5 4 4 3 3 3 3 3 3 3 3 3 3 3 3 3 3 3 3 3 3 3 2 2 2 2 2 2 2 2
3 3 4 6 5 3 2 1 1 2 4 5 5 7 6 5 5 4 3 3 2 2 2 2 2 2 3 3 3 3 3 3 3 2 2 2 2 2 2 2 2 2 2 1
2 3 2 2 2 2 2 2 1 1 3 4 5 4 5 5 4 3 3 2 2 2 2 2 2 2 2 2 2 2 2 2 2 2 2 2 2 1 1 1 1 1 1 1
1 2 1 1 1 1 1 1 1 1 2 3 3 3 5 4 3 2 2 2 2 2 1 1 1 1 2 2 2 1 1 1 1 1 1 1 1 1 1 1 1 1 1 0
0 -0 1 3 1 0 2 2 1 1 1 2 3 4 4 3 2 2 2 1 1 1 1 1 1 1 1 1 1 1 1 1 1 1 1 0 0 0 0 0 0 0 0 -0
-1 -0 1 2 1 2 4 1 1 1 1 1 2 2 2 2 1 1 1 1 1 1 1 1 1 1 1 1 1 0 0 0 0 0 0 0 -0 -0 -0 -0 -0 -0 -0 -0
-1 -0 1 1 2 3 3 1 0 0 1 1 1 1 1 -0 -0 1 1 1 0 0 0 0 0 1 0 0 0 0 0 0 0 -0 -0 -0 -0 -1 -1 -1 -1 -1 -1 -1
-2 -2 0 0 2 3 4 1 -1 1 2 1 0 0 -0 -1 2 2 0 -0 -0 -0 -0 0 0 0 0 0 -0 -0 -0 -0 -0 -0 -1 -1 -1 -1 -1 -1 -1 -1 -1 -1
-2 -1 -0 0 1 3 2 -1 -1 2 3 1 -0 -1 -1 -0 1 0 -0 -0 -0 -0 -0 -0 -0 -0 -0 -0 -0 -1 -1 -1 -1 -1 -1 -1 -1 -1 -1 -1 -1 -2 -2 -2
-0 -0 -1 -0 1 2 -0 -1 1 2 0 -0 -1 -1 -1 -1 -1 -1 -1 -1 -1 -1 -1 -1 -1 -1 -1 -1 -1 -1 -1 -1 -1 -1 -2 -2 -2 -2 -2 -2 -2 -2 -2 -2
-1 0 1 1 2 1 -1 -0 -0 -0 -0 -1 -1 -1 -1 -2 -1 -1 -1 -1 -1 -1 -1 -1 -1 -1 -1 -1 -2 -2 -2 -2 -2 -2 -2 -2 -2 -2 -2 -2 -2 -2 -2 -3
-2 -3 -2 -2 -0 -1 -1 -1 -1 -1 -1 -1 -1 -1 -1 -2 -2 -2 -2 -1 -1 -1 -2 -2 -2 -2 -2 -2 -2 -2 -2 -2 -2 -2 -2 -3 -3 -3 -3 -3 -3 -3 -3 -3
-1 -3 -3 -2 -1 -1 -1 -1 -1 -1 -1 -1 -1 -1 -2 -2 -2 -2 -2 -2 -2 -2 -2 -2 -2 -2 -2 -2 -2 -2 -2 -3 -3 -3 -3 -3 -3 -3 -3 -3 -3 -3 -3 -4
-2 -3 -2 0 -0 -1 -1 -1 -1 -1 -1 -2 -2 -2 -2 -2 -2 -2 -2 -2 -2 -2 -2 -2 -2 -2 -2 -3 -3 -3 -3 -3 -3 -3 -3 -3 -3 -3 -3 -4 -4 -4 -4 -4
Wind_Speed
1 2 3 4 5 4 4 6 8 6 3 5 9 12 11 7 8 9 9 8 7 7 5 4 4 4 5 5 5 5 5 5 5 4 3 3 2 2 2 1 2 2 2 2
2 3 4 3 3 3 5 6 7 5 3 5 9 13 11 8 8 8 8 8 7 6 5 4 4 4 5 5 5 5 5 5 5 4 3 2 2 2 1 1 1 2 2 2
4 2 2 4 4 4 6 7 7 6 5 4 7 9 7 4 5 5 6 6 6 6 6 5 4 5 5 5 5 4 5 5 5 5 3 3 2 2 2 2 1 1 2 2
2 2 1 3 4 5 6 5 6 6 5 4 4 6 6 4 5 5 5 5 5 5 5 4 4 5 5 4 4 4 4 4 4 4 5 5 4 4 3 2 2 2 2 2
2 2 3 4 4 4 3 1 3 4 4 5 5 6 6 3 6 4 3 3 3 3 3 3 4 4 4 4 4 4 4 4 4 4 5 5 5 3 3 3 3 2 2 3
2 2 2 2 2 2 1 1 1 2 3 6 6 7 6 4 5 3 3 2 3 3 3 2 2 2 2 3 3 4 4 3 3 4 4 5 5 5 4 4 3 2 2 3
2 2 1 1 1 2 2 2 2 2 3 5 2 6 7 3 3 4 4 3 3 2 2 2 2 2 2 2 3 4 4 4 4 4 4 5 5 5 5 4 4 3 3 3
3 3 2 2 3 3 4 4 3 4 5 4 3 7 4 2 3 3 3 3 2 2 2 2 2 2 2 2 3 3 4 4 4 4 4 4 5 4 4 4 4 4 3 4
4 3 0 2 2 3 3 4 2 2 3 6 6 5 6 4 4 3 3 2 2 2 2 1 2 2 2 2 2 3 4 4 4 4 5 4 4 4 4 5 4 3 3 3
3 4 2 2 2 1 2 2 3 3 4 6 6 6 5 4 4 3 2 2 3 3 2 1 2 2 2 3 2 2 4 4 4 4 4 3 4 4 4 4 5 4 4 4
3 3 2 2 4 5 3 3 4 3 4 4 6 4 1 3 3 3 3 4 4 4 3 2 2 2 2 2 2 2 3 3 3 3 3 4 3 3 3 3 4 4 4 4
3 2 3 4 2 3 4 5 5 5 5 5 6 6 0 3 3 4 5 5 4 3 3 2 2 2 2 2 2 2 2 3 3 3 3 3 3 3 4 4 4 3 4 3
4 3 3 3 3 2 3 4 4 3 3 6 8 6 0 2 4 4 5 5 4 4 3 3 3 3 3 3 3 3 3 3 3 3 4 4 4 4 4 3 3 3 3 3
3 4 7 8 5 3 5 7 7 7 7 9 12 12 8 7 7 6 6 5 5 5 5 4 4 4 3 3 3 3 3 3 3 3 4 4 4 4 4 3 3 3 3 3
3 5 6 8 7 5 8 9 11 13 13 11 12 12 13 10 8 8 7 6 6 6 6 6 5 4 4 3 3 3 3 3 2 3 4 4 4 3 3 3 3 3 3 4
2 3 3 6 6 6 9 12 12 13 13 15 15 15 11 8 7 7 7 6 7 7 7 6 5 5 4 4 3 3 3 3 3 3 3 3 3 3 3 3 3 3 3 3
3 4 3 5 3 5 9 10 11 9 10 10 14 12 7 7 7 7 7 7 7 7 7 6 6 5 4 4 4 4 4 3 3 3 3 3 3 3 4 3 3 4 4 3
4 3 3 3 2 8 4 1 6 9 9 10 10 9 8 8 8 8 7 7 7 6 6 6 5 5 4 4 4 4 4 4 4 4 4 4 4 4 4 4 4 4 4 4
5 5 3 3 6 9 6 3 4 6 8 8 9 9 8 6 6 6 4 4 6 6 6 6 5 5 5 4 4 4 4 3 4 4 4 4 4 4 4 4 4 4 4 4
2 3 4 4 5 7 4 1 1 2 6 3 4 7 6 4 5 5 3 5 6 6 6 6 5 5 4 4 3 4 4 4 4 4 5 4 4 5 5 5 4 4 4 4
4 4 7 8 7 8 2 2 3 4 3 2 4 6 5 6 6 6 5 6 6 6 6 5 5 4 4 4 3 4 4 5 4 4 4 4 4 5 5 4 4 3 3 3
6 6 6 6 7 8 3 4 5 4 4 4 5 6 7 8 7 7 7 6 6 5 5 5 4 4 4 3 3 4 5 4 4 3 3 4 4 4 3 4 3 3 3 3
7 6 4 7 7 4 4 6 5 5 6 6 6 6 6 7 7 7 6 6 6 5 5 4 4 4 4 3 4 5 5 3 3 3 3 3 3 3 3 4 4 3 3 3
5 3 4 6 9 8 8 8 8 7 8 8 7 6 6 6 7 7 6 6 5 5 5 4 4 4 5 4 4 4 4 3 3 3 3 3 3 3 3 3 4 4 4 4
4 5 5 8 9 8 8 7 8 8 7 7 6 5 5 6 6 6 6 6 6 5 5 4 4 5 5 4 4 4 3 3 3 3 3 3 3 3 3 4 4 4 5 5
6 7 7 8 7 7 8 7 6 6 7 6 6 5 5 5 6 6 6 6 6 5 5 4 5 5 5 4 4 4 3 3 3 3 3 3 3 3 3 3 3 4 5 6
Wind_Direction
72 180 221 225 231 258 262 256 260 270 294 278 267 271 271 265 257 254 252 250 246 246 242 228 221 211 198 189 188 187 180 175 170 167 171 176 179 170 154 138 142 156 161 166
172 236 252 241 213 220 241 254 264 277 293 283 282 277 270 258 250 252 251 249 248 249 243 229 218 205 202 197 195 192 188 183 186 187 185 192 183 177 165 143 152 174 179 178
229 298 238 204 208 226 245 249 262 277 299 266 287 272 247 239 235 246 248 251 248 244 239 228 217 207 202 203 202 201 197 188 191 187 176 159 156 159 172 180 191 195 193 190
250 271 215 219 243 244 254 254 257 264 275 276 289 281 254 244 249 248 246 242 243 242 235 226 215 211 208 206 201 204 199 189 183 181 189 187 193 198 204 196 198 193 192 198
247 264 245 244 261 252 258 291 255 257 256 272 253 258 263 237 247 248 250 246 246 247 235 226 215 209 206 198 193 194 192 186 183 189 195 200 201 202 189 184 190 196 195 203
263 279 279 264 280 244 184 240 257 236 236 253 243 240 263 231 237 250 261 277 277 269 254 240 221 196 184 186 185 180 179 178 183 192 199 202 201 198 194 196 194 203 208 210
259 232 224 241 211 178 214 228 246 229 229 247 212 238 255 257 253 256 269 291 297 282 260 247 230 203 184 179 190 187 184 188 192 197 206 208 210 209 208 210 208 210 217 220
232 249 206 235 237 223 220 228 239 256 261 270 229 244 256 269 271 272 272 288 305 296 268 244 232 213 204 201 207 200 195 198 196 200 210 212 214 219 220 219 221 223 226 227
226 240 219 262 277 233 203 220 271 262 275 271 251 258 271 237 237 244 253 275 295 309 293 252 229 221 220 217 217 215 207 211 210 208 210 216 218 224 230 229 225 228 228 224
222 246 258 275 223 238 273 197 192 221 253 263 265 259 253 223 226 227 243 271 289 298 299 269 236 229 231 233 233 219 211 216 219 216 215 220 226 230 235 234 228 226 223 217
226 225 251 236 219 222 196 198 217 224 261 265 277 264 239 240 238 248 273 285 288 284 282 275 250 236 235 236 234 231 221 213 218 219 218 225 232 234 233 234 235 228 223 216
196 219 249 256 287 294 239 224 209 231 241 249 271 274 86 263 273 276 287 297 296 288 286 281 271 251 242 244 247 247 240 231 223 221 223 227 232 232 233 235 241 234 228 222
174 190 234 246 215 207 232 232 233 253 246 238 252 266 83 290 288 288 288 292 291 285 282 280 278 265 257 256 256 259 253 249 241 224 223 231 232 231 236 243 246 239 231 225
201 216 235 256 280 230 241 236 224 221 239 249 250 266 277 283 286 291 294 291 290 287 283 280 275 270 268 266 264 266 266 254 248 230 225 230 235 236 239 243 242 237 230 227
202 236 246 267 276 262 254 242 224 225 236 249 263 264 271 280 286 289 289 290 289 287 284 282 279 277 278 278 273 273 268 258 245 233 227 232 236 236 235 236 236 232 228 228
202 226 245 265 263 265 267 255 237 237 242 249 264 271 273 281 282 284 283 282 282 284 283 284 283 279 279 281 278 277 270 259 244 237 233 232 232 231 233 235 239 235 236 237
195 184 226 261 271 280 263 242 223 230 231 235 249 264 282 284 287 289 290 281 276 283 285 283 277 273 272 273 273 270 268 256 240 241 238 231 227 231 232 229 230 232 237 238
193 199 235 264 258 248 265 271 221 233 247 240 256 273 278 280 292 287 279 276 278 284 288 286 284 281 280 277 277 271 264 247 237 240 239 235 230 232 233 228 229 235 237 237
215 201 216 232 255 271 273 233 202 226 263 240 246 270 284 294 294 283 278 273 282 291 291 288 286 282 277 271 271 265 263 258 244 242 242 240 236 237 238 235 237 238 238 240
178 204 218 225 249 261 280 209 204 217 267 214 242 273 286 286 280 290 310 303 296 297 295 291 289 280 271 270 265 256 262 261 259 256 249 244 237 235 237 238 240 240 235 240
180 204 221 233 249 267 280 144 164 232 288 316 268 265 263 260 272 291 296 297 293 294 293 290 282 271 270 270 253 252 259 263 270 273 260 248 240 237 238 239 238 235 235 240
197 197 206 210 232 255 171 168 214 276 314 291 278 270 264 271 281 283 285 288 291 295 294 289 282 278 278 263 245 252 260 270 277 273 263 246 241 238 233 233 232 230 227 235
217 217 216 215 237 294 214 243 272 291 287 289 284 282 271 271 275 280 281 284 285 285 285 281 275 280 283 264 247 252 267 275 271 264 260 252 243 234 227 226 227 227 225 229
229 219 227 255 264 269 267 269 273 274 278 283 282 278 265 262 269 276 281 281 282 280 279 274 271 276 283 278 265 261 271 272 261 258 259 254 242 241 237 231 226 226 227 229
232 194 230 260 276 287 270 264 275 280 280 280 281 275 263 259 267 272 277 280 282 281 277 268 263 268 275 279 275 273 268 260 257 256 253 251 245 239 240 238 235 233 234 234
216 214 227 255 265 263 278 285 286 276 275 275 276 279 272 262 265 272 275 277 277 273 270 267 265 265 270 273 273 275 268 253 247 252 249 245 244 241 242 244 256 251 252 258
Height
1515 1514 1512 1512 1513 1512 1512 1511 1508 1509 1513 1513 1508 1505 1504 1505 1506 1505 1504 1504 1504 1505 1506 1507 1507 1508 1509 1510 1511 1512 1513 1514 1515 1516 1517 1518 1519 1519 1520 1521 1521 1521 1521 1522
1513 1513 1514 1515 1515 1515 1514 1512 1510 1511 1514 1512 1507 1503 1500 1501 1502 1502 1501 1501 1502 1502 1503 1503 1504 1505 1505 1507 1508 1509 1510 1511 1512 1513 1514 1515 1516 1517 1517 1518 1518 1519 1519 1519
1511 1515 1515 1516 1515 1514 1512 1511 1509 1511 1512 1511 1508 1496 1495 1497 1498 1499 1499 1499 1499 1500 1500 1501 1501 1501 1502 1503 1505 1506 1507 1508 1509 1511 1512 1513 1514 1514 1515 1515 1516 1516 1516 1517
1514 1516 1516 1514 1513 1512 1510 1512 1512 1512 1510 1504 1508 1495 1487 1492 1494 1495 1496 1496 1497 1497 1498 1498 1498 1499 1500 1501 1502 1503 1504 1505 1506 1507 1509 1509 1510 1511 1511 1512 1513 1513 1513 1514
1514 1516 1515 1514 1514 1514 1512 1514 1513 1511 1510 1509 1506 1503 1485 1490 1490 1491 1493 1494 1494 1495 1495 1495 1495 1496 1497 1498 1499 1500 1501 1502 1503 1504 1505 1506 1507 1508 1509 1509 1510 1510 1510 1510
1516 1518 1517 1515 1516 1516 1516 1515 1514 1512 1509 1509 1502 1499 1482 1484 1487 1489 1491 1492 1493 1493 1493 1493 1493 1494 1494 1495 1496 1497 1498 1499 1500 1501 1502 1503 1504 1505 1505 1506 1506 1506 1507 1507
1514 1515 1517 1517 1515 1515 1514 1512 1508 1505 1504 1496 1502 1499 1486 1485 1488 1489 1490 1491 1491 1491 1491 1491 1491 1491 1492 1492 1494 1495 1496 1496 1497 1498 1499 1500 1501 1501 1502 1502 1502 1503 1503 1504
1510 1509 1514 1515 1513 1512 1512 1509 1506 1501 1494 1489 1502 1494 1483 1488 1489 1490 1490 1490 1489 1489 1489 1489 1489 1489 1490 1490 1491 1492 1493 1494 1494 1495 1496 1496 1497 1498 1498 1499 1499 1499 1500 1500
1507 1507 1514 1515 1515 1513 1511 1509 1510 1508 1510 1502 1487 1487 1486 1487 1488 1488 1488 1488 1488 1488 1487 1487 1487 1488 1488 1488 1489 1490 1490 1491 1492 1492 1493 1493 1493 1494 1495 1495 1495 1496 1496 1496
1510 1511 1513 1515 1515 1515 1513 1511 1511 1508 1501 1490 1482 1482 1477 1481 1483 1485 1486 1487 1487 1486 1486 1486 1486 1486 1486 1487 1487 1487 1488 1488 1489 1489 1489 1490 1490 1491 1491 1491 1492 1492 1492 1493
1511 1511 1513 1513 1512 1509 1513 1513 1509 1506 1504 1493 1484 1478 1479 1481 1482 1484 1485 1486 1485 1485 1485 1484 1484 1484 1484 1484 1485 1485 1485 1486 1486 1486 1487 1487 1487 1487 1488 1488 1488 1488 1488 1488
1511 1509 1508 1510 1513 1514 1511 1508 1508 1505 1504 1502 1490 1482 1482 1483 1484 1485 1485 1484 1484 1483 1483 1483 1482 1482 1482 1482 1482 1482 1482 1483 1483 1483 1483 1484 1483 1484 1484 1484 1484 1484 1484 1485
1511 1511 1506 1503 1511 1515 1513 1511 1511 1511 1505 1499 1491 1481 1483 1483 1484 1484 1484 1483 1483 1482 1481 1481 1480 1480 1479 1479 1479 1480 1480 1480 1480 1480 1480 1480 1480 1481 1481 1481 1480 1481 1481 1481
1508 1508 1504 1496 1493 1502 1507 1509 1510 1509 1501 1493 1487 1479 1480 1481 1482 1483 1483 1482 1481 1481 1480 1479 1478 1477 1477 1477 1477 1477 1477 1476 1476 1477 1477 1477 1477 1477 1477 1477 1477 1477 1478 1478
1507 1505 1506 1504 1504 1504 1502 1502 1505 1504 1495 1491 1482 1483 1478 1480 1481 1481 1481 1480 1479 1478 1477 1476 1475 1475 1474 1474 1474 1473 1473 1473 1473 1473 1473 1473 1474 1474 1473 1474 1474 1474 1474 1474
1506 1506 1507 1504 1504 1504 1502 1497 1497 1497 1494 1490 1487 1483 1478 1480 1480 1479 1479 1478 1477 1475 1474 1474 1473 1472 1471 1471 1471 1470 1470 1470 1470 1470 1470 1470 1470 1470 1470 1470 1471 1471 1471 1471
1506 1507 1503 1494 1502 1501 1490 1486 1490 1489 1487 1486 1481 1476 1477 1478 1478 1477 1476 1475 1474 1473 1472 1471 1470 1469 1469 1468 1468 1467 1467 1467 1466 1467 1467 1467 1467 1467 1467 1467 1467 1467 1467 1467
1506 1505 1502 1497 1500 1491 1477 1483 1483 1484 1482 1482 1479 1477 1477 1477 1476 1475 1474 1473 1471 1470 1469 1468 1467 1466 1466 1465 1465 1464 1464 1463 1463 1463 1463 1463 1463 1463 1463 1463 1464 1464 1463 1463
1503 1503 1500 1497 1488 1478 1477 1481 1482 1482 1477 1476 1476 1476 1476 1475 1474 1471 1470 1470 1469 1468 1467 1465 1464 1464 1463 1462 1462 1461 1460 1460 1460 1460 1460 1460 1460 1460 1460 1460 1460 1460 1459 1459
1503 1503 1500 1496 1488 1478 1472 1479 1480 1481 1474 1472 1473 1473 1473 1473 1470 1467 1468 1467 1466 1465 1463 1462 1461 1461 1460 1459 1459 1458 1457 1456 1456 1456 1456 1456 1456 1456 1456 1456 1456 1456 1455 1455
1500 1499 1497 1492 1487 1475 1475 1478 1480 1477 1470 1471 1471 1471 1471 1470 1468 1467 1465 1464 1463 1461 1460 1460 1459 1458 1457 1456 1455 1454 1453 1453 1453 1452 1452 1452 1452 1452 1452 1452 1452 1452 1451 1451
1488 1489 1491 1489 1486 1476 1476 1477 1476 1471 1470 1469 1468 1468 1467 1466 1464 1463 1462 1460 1459 1458 1457 1456 1455 1454 1454 1453 1452 1451 1450 1450 1450 1449 1449 1449 1449 1449 1448 1448 1448 1448 1448 1447
1485 1482 1480 1480 1475 1473 1473 1472 1471 1470 1468 1467 1466 1465 1464 1463 1461 1460 1459 1458 1456 1455 1454 1453 1452 1451 1450 1450 1449 1448 1447 1447 1446 1446 1446 1445 1445 1445 1445 1445 1444 1444 1444 1444
1482 1483 1482 1479 1472 1471 1470 1469 1467 1467 1466 1464 1463 1462 1461 1460 1458 1457 1456 1454 1453 1452 1451 1450 1449 1448 1447 1447 1446 1445 1444 1443 1443 1443 1442 1442 1442 1441 1441 1441 1441 1441 1440 1440
1475 1479 1478 1475 1470 1468 1465 1465 1464 1463 1462 1461 1460 1459 1458 1456 1455 1454 1452 1451 1450 1449 1448 1447 1446 1445 1444 1443 1443 1442 1441 1440 1440 1440 1439 1439 1439 1438 1438 1438 1437 1437 1437 1437
1473 1473 1472 1466 1465 1465 1462 1462 1461 1460 1459 1458 1457 1455 1454 1454 1452 1451 1450 1449 1447 1446 1445 1444 1443 1442 1441 1440 1439 1439 1438 1437 1437 1437 1436 1436 1435 1435 1435 1434 1434 1433 1434 1433